User: anonymous   Login
Location: Columbia
(38.9520°N, 92.3340°W)
Time: 15:48:02
(UTC-05:00)
Language:

Iridium 22 - Orbit

View from above orbital plane
View from above orbital plane
View from above satellite
View from above satellite

Ground track
Ground track

The orbit data is extracted from the following two-line orbital elements,

1 24907U 97043E   15108.30634515  .00000622  00000-0  21511-3 0  9990
2 24907 086.3998 226.5751 0002252 096.9553 317.3860 14.34219402924477
Epoch (UTC): 18 April 2015 07:21:08
Eccentricity: 0.0002252
inclination: 86.3998°
perigee height: 776 km
apogee height: 779 km
right ascension of ascending node: 226.5751°
argument of perigee: 96.9553°
revolutions per day: 14.34219402
mean anomaly at epoch: 317.3860°
orbit number at epoch: 92447

The dashed part of the orbit path shows where the satellite is in the earth's shadow,  

DLR